Location: Bletchingley
(51.2333°N, 0.1000°W)
Time: 12:26:13
(UTC+00:00)

NOSS 3-2 (C) - Pass Details

Date: 18 September 2020
Orbit: 795 x 1418 km, 63.4° (Epoch: 02 October)

Event Time Altitude Azimuth Distance (km) Brightness Sun altitude
Rises 20:32:36 0° 315° (NW) 3,920 8.1 -22.3°
Reaches altitude 10° 20:35:09 10° 313° (NW) 3,044 7.2 -22.6°
Maximum altitude 20:42:30 70° 232° (SW) 1,339 4.1 -23.6°
Enters shadow 20:46:12 36° 159° (SSE) 1,970 4.6 -24.0°
